Regional Weather Roundup
Issued by NWS State College, PA

Home | Current Version | Previous Version | Graphics & Text | Print | Product List | Glossary On
Versions: 1 2 3 4 5 6 7 8 9 10 11 12 13 14 15 16 17 18 19 20 21 22 23 24 25 26 27 28 29 30 31 32 33 34 35 36 37 38 39 40 41 42 43 44 45 46 47 48 49 50
000
ASUS41 KCTP 021803
RWRCTP

REGIONAL WEATHER ROUNDUP
NATIONAL WEATHER SERVICE STATE COLLEGE PA
200 PM EDT TUE JUN 02 2015

Note: "fair" indicates few or no clouds below 12,000 feet with no
significant weather and/or obstructions to visibility.

* = STATION THAT DOES NOT REPORT PRECIPITATION /E.G. RAIN...SNOW...ETC/
    THUNDER OR FOG.

PAZ002>004-007>009-013>016-020>023-029>032-021900-
WESTERN PENNSYLVANIA

CITY           SKY/WX    TMP DP  RH WIND       PRES   REMARKS
ERIE           MOSUNNY   61  48  62 NE14      30.18F
MEADVILLE      PTSUNNY   65  48  54 E10       30.15F
FRANKLIN*      PTSUNNY   64  48  55 NE7       30.16F
NEW CASTLE     CLOUDY    63  54  72 E8        30.17S
BEAVER COUNTY  CLOUDY    59  52  77 N5        30.16S
BUTLER*        CLOUDY    59  52  77 E8        30.17S
PITTSBURGH INT CLOUDY    61  51  70 NE6       30.14F
PITTSBURGH     CLOUDY    59  50  72 NE6       30.14S
INDIANA*       CLOUDY    59  54  82 E6        30.18F
LATROBE        CLOUDY    59  57  94 NE7       30.15F
WASHINGTON CO* CLOUDY    61  52  72 NE7       30.15F
$$

PAZ004>006-010>012-017>019-024>028-033>037-041-042-045-046-049>053-021900-
CENTRAL PENNSYLVANIA

CITY           SKY/WX    TMP DP  RH WIND       PRES   REMARKS
BRADFORD       PTSUNNY   59  46  62 E7        30.18S
DUBOIS         CLOUDY    62  49  62 NE9       30.15F
CLEARFIELD     CLOUDY    60  51  72 E7        30.16S
JOHNSTOWN      CLOUDY    56  53  90 E6        30.14S
ALTOONA        LGT RAIN  58  54  86 N9        30.15F
STATE COLLEGE  CLOUDY    57  54  88 E7        30.16S
WILLIAMSPORT   CLOUDY    61  50  67 NE6       30.15F
SELINSGROVE    LGT RAIN  58  55  90 NE5       30.16F
FT INDIANTOWN  LGT RAIN  56  54  94 VRB3      30.14F
CAPITAL CITY   LGT RAIN  58  54  86 NE7       30.14F FOG
HARRISBURG     LGT RAIN  57  53  86 NE6       30.13F
YORK           LGT RAIN  57  54  89 NE7       30.14S
$$

PAZ038>040-043-044-047-048-054-055-060>062-067>071-021900-
EASTERN PENNSYLVANIA

CITY           SKY/WX    TMP DP  RH WIND       PRES   REMARKS
SCRANTON       LGT RAIN  57  52  83 CALM      30.15S
MOUNT POCONO   LGT RAIN  52  48  86 N3        30.16S
ALLENTOWN      RAIN      54  51  90 NE5       30.15R FOG
QUAKERTOWN*    CLOUDY    54  52  94 NE6       30.14F
READING        LGT RAIN  54  52  93 N6        30.13F FOG
LANCASTER      LGT RAIN  55  53  93 NE7       30.13F
COATESVILLE    LGT RAIN  54  54 100 NE6       30.13S
POTTSTOWN      LGT RAIN  53  53 100 N8        30.14F
BLUE BELL      CLOUDY    55  54  94 CALM      30.12F
DOYLESTOWN     LGT RAIN  53  53 100 NE3       30.12F
WILLOW GROVE   NOT AVBL
NORTH PHILA    LGT RAIN  56  51  84 NE9       30.14F
PHILADELPHIA   LGT RAIN  56  52  86 NE13      30.13S
$$



USA.gov is the U.S. government's official web portal to all federal, state and local government web resources and services.